Wind_Gust
4 2 3 1 3 3 4 12 6 10 6 7 6 5 10 4 7 11 8 7 4 7 5 5 6 5 5 9 9 7 5 14 11 19 13 9 8 9 19 14 15 16 17 15 15 17 17 17 18 19 21 22 22 21 21 21 21 22 23 24 25 24 25 26 26 25 24 26 27 27 28 29 29 28 27 27 26 25 24 25 25 25 24 23 23 22 23 23 24 25 25 25 24 25 24 23 23
3 1 1 1 3 2 4 6 8 4 11 5 13 4 10 4 1 8 8 2 5 10 2 13 14 17 17 16 12 4 5 4 6 7 8 5 6 9 12 13 16 18 16 15 14 17 16 18 18 18 20 22 22 22 22 21 21 22 23 24 24 24 24 24 27 26 25 26 27 27 28 28 29 28 26 26 26 25 24 24 25 25 24 23 23 23 22 23 22 22 23 23 23 23 21 20 19
1 2 2 5 5 7 5 9 9 4 5 6 14 16 5 4 8 8 9 3 4 7 4 10 10 8 5 4 6 3 3 4 5 5 10 7 9 3 6 11 13 14 15 14 15 16 15 18 20 19 20 22 22 22 22 22 21 21 22 22 22 23 23 24 25 26 25 25 26 26 27 27 26 27 27 26 25 25 23 21 24 24 23 22 21 22 22 21 22 21 22 22 21 21 20 18 16
3 1 4 6 5 9 5 7 8 14 6 12 10 11 8 6 9 11 3 7 10 6 5 4 8 8 7 9 5 2 4 4 3 4 8 6 6 3 8 13 13 14 13 13 14 14 14 21 21 20 21 22 22 22 22 23 22 21 21 21 22 22 22 22 23 23 23 24 25 26 25 26 25 26 26 25 23 23 24 23 22 23 23 21 21 20 20 20 20 21 21 21 21 20 18 17 15
1 3 3 6 10 5 7 5 8 7 8 12 9 8 7 9 11 6 4 8 13 8 3 4 10 10 3 8 3 8 3 3 5 3 6 3 4 9 9 13 16 15 13 14 14 14 14 22 20 19 20 21 22 22 22 22 21 21 20 20 20 20 21 22 22 22 23 24 24 24 25 25 25 25 24 24 21 22 23 23 22 22 20 20 19 18 18 17 19 20 19 19 19 18 16 15 15
4 3 5 5 5 7 13 5 4 6 14 9 4 10 9 8 6 4 6 9 4 2 5 2 8 8 6 5 5 6 3 7 6 2 4 5 7 11 10 12 14 14 13 12 12 12 13 22 20 19 19 21 21 22 22 23 22 20 20 20 18 19 19 20 19 20 21 23 22 24 25 25 25 24 24 23 22 21 22 23 22 23 23 22 20 20 19 18 18 18 18 18 18 17 16 15 15
5 8 10 7 5 12 9 5 5 8 17 14 12 10 9 5 6 6 8 9 3 5 4 4 9 9 11 5 4 4 7 3 4 3 3 2 12 11 9 13 14 13 12 12 11 10 14 19 19 19 19 21 21 21 22 21 22 21 21 20 19 20 20 19 18 19 20 20 21 22 24 24 24 24 23 22 22 20 21 20 21 22 23 22 20 20 19 19 18 18 17 17 17 16 15 15 16
2 5 5 7 7 4 3 3 7 10 11 13 7 9 15 14 3 8 4 4 7 3 3 4 3 9 4 3 8 2 9 8 3 4 4 10 11 11 10 12 15 13 14 12 10 9 18 18 19 19 20 20 22 22 21 21 20 19 20 20 20 20 20 20 19 17 17 19 20 22 23 22 23 23 23 22 21 20 20 19 19 20 21 21 20 19 19 19 18 18 18 17 16 16 15 17 17
6 11 2 10 4 6 3 4 10 7 13 7 16 14 19 16 7 6 5 5 1 4 6 3 2 9 9 1 5 3 4 7 6 9 8 9 10 9 10 11 13 14 12 13 10 9 12 15 16 18 19 21 20 20 20 20 19 19 19 19 18 17 18 20 21 19 17 16 18 20 21 20 20 20 21 20 21 18 18 19 18 17 17 18 19 19 19 18 18 19 18 17 17 16 16 17 19
5 5 5 10 9 4 4 10 2 9 9 7 9 15 13 11 4 5 4 8 5 8 5 2 2 6 6 7 3 4 5 4 7 10 9 9 8 9 9 9 9 12 12 12 10 11 12 18 16 17 17 20 20 19 17 17 18 19 19 17 15 16 17 18 17 18 16 14 15 17 18 18 17 18 19 21 21 18 19 17 16 14 15 17 18 18 18 18 18 18 18 17 17 16 16 17 19
8 11 6 8 4 4 6 9 9 12 7 9 15 17 19 17 6 5 7 3 4 10 3 4 8 7 5 3 5 3 4 7 7 8 7 9 10 10 11 10 10 10 13 11 10 12 12 14 19 15 15 18 18 17 16 16 16 16 16 15 15 15 16 15 17 16 15 16 16 17 17 17 17 17 17 19 20 20 18 16 15 13 13 15 17 17 18 18 18 17 17 16 15 14 14 16 18
6 5 5 6 6 10 8 7 8 13 13 8 13 12 4 5 6 7 7 13 6 5 6 3 14 9 6 5 5 2 5 9 7 8 7 8 10 10 11 12 11 10 11 11 11 12 11 12 13 16 15 16 16 16 16 15 15 16 16 14 14 14 16 15 15 16 17 15 15 16 16 16 17 15 14 16 18 18 17 15 13 11 12 14 16 18 18 18 18 17 16 15 14 13 14 15 17
8 4 8 8 7 3 3 2 9 5 10 11 8 9 3 9 5 9 6 7 6 6 3 6 13 4 8 6 5 2 5 6 7 8 9 9 10 12 11 12 12 13 12 11 11 12 11 10 12 13 13 16 14 13 13 13 13 14 14 14 13 14 14 14 16 16 15 16 16 17 17 16 16 15 14 15 18 17 18 14 12 10 10 13 15 17 18 18 17 17 16 15 14 14 14 14 16
9 12 11 8 2 4 5 6 2 5 10 9 6 9 7 2 2 9 16 9 2 3 4 8 10 4 6 4 6 3 5 9 10 9 9 9 10 13 12 12 11 12 14 12 12 12 11 10 10 11 11 11 9 12 11 12 12 12 13 13 13 13 14 14 14 14 14 14 15 16 17 17 16 16 15 13 16 17 15 13 10 9 10 12 13 16 17 17 17 17 15 14 14 15 15 15 16
6 5 7 7 4 1 6 7 4 5 11 3 9 7 11 5 4 5 7 13 5 3 6 5 6 3 9 12 10 10 12 12 12 11 10 10 12 12 11 12 11 9 10 13 12 12 12 11 11 10 8 9 8 8 7 11 13 12 12 13 13 13 13 13 13 13 16 17 18 17 17 17 15 17 16 15 15 15 16 13 9 9 10 11 12 15 15 16 17 16 15 13 13 15 16 17 17
8 9 6 5 6 5 10 5 3 1 14 3 7 5 5 4 4 5 4 4 11 4 5 10 9 4 3 9 3 9 17 15 12 12 12 11 11 13 15 11 11 10 7 10 12 13 11 11 10 11 10 10 8 8 9 8 12 12 13 14 15 13 13 13 14 14 16 17 17 15 14 14 14 13 18 16 17 13 14 11 9 9 10 11 12 12 14 15 16 16 14 14 14 15 17 17 16
3 8 4 6 6 5 8 8 7 7 12 8 9 12 4 5 2 4 4 6 16 4 5 7 7 7 4 6 6 16 16 15 13 14 13 11 11 11 14 12 11 11 11 10 11 12 12 12 11 11 11 10 10 9 8 9 12 14 11 13 14 14 13 16 17 18 15 15 15 13 10 8 7 8 12 10 15 11 11 12 10 9 9 11 11 12 13 14 15 14 15 16 14 14 17 18 16
4 8 10 4 8 6 10 10 13 1 4 10 13 5 2 6 2 4 6 13 8 7 9 6 9 10 8 7 11 14 17 17 13 14 13 13 12 12 14 9 14 10 11 9 10 11 12 12 12 12 11 10 10 9 8 8 9 12 10 9 10 12 11 11 12 10 11 9 13 13 10 9 7 6 8 11 9 11 11 12 10 9 8 9 10 10 11 12 13 14 16 16 15 13 15 16 14
8 7 8 14 10 15 8 7 7 3 8 7 9 11 5 6 7 5 10 1 3 8 8 6 7 10 12 12 13 16 15 15 13 12 14 13 13 16 11 9 13 10 13 9 8 11 11 11 12 11 11 10 10 8 9 8 8 8 8 9 9 9 9 9 5 9 6 8 8 8 9 8 8 6 7 10 9 13 12 11 10 9 8 8 8 9 10 11 13 14 16 16 15 15 13 12 13
8 11 9 15 10 9 7 6 7 5 5 13 10 11 3 3 3 3 7 5 3 10 10 5 5 7 10 11 13 14 16 15 13 13 14 12 11 13 10 10 10 8 10 10 9 9 12 11 12 11 11 11 12 10 9 8 7 6 8 8 8 8 7 8 6 6 7 7 8 8 8 9 8 8 13 17 12 8 9 9 11 9 8 7 7 7 8 11 14 16 16 14 11 9 11 11 12
7 7 12 11 7 6 8 8 13 13 5 7 8 5 5 2 4 6 11 9 3 7 8 11 18 15 15 14 14 15 16 16 16 15 14 12 10 8 9 10 10 7 8 10 7 11 9 13 12 13 12 12 11 11 11 9 9 9 8 9 9 8 8 7 8 7 7 8 8 8 8 8 8 7 6 6 8 9 7 8 6 5 6 7 7 7 7 7 7 8 10 10 10 11 11 10 11
9 13 4 7 2 4 11 7 8 6 8 4 7 8 5 2 4 10 11 10 10 13 12 8 8 19 21 21 17 15 17 18 18 18 13 12 13 11 10 9 9 7 7 10 6 11 7 14 15 13 14 11 13 12 11 11 12 10 10 9 9 8 7 7 7 6 7 8 7 8 7 8 7 6 7 8 8 7 7 10 6 6 5 7 6 6 6 6 7 8 9 10 9 9 10 10 9
12 6 5 10 9 11 5 5 8 6 4 4 4 6 6 2 5 6 9 8 4 7 4 8 13 14 11 11 16 17 17 17 18 18 16 13 13 11 11 10 14 10 8 9 6 8 8 8 12 9 10 9 9 10 10 9 10 8 9 10 9 8 8 7 6 6 7 8 8 8 8 8 7 7 9 8 8 9 9 9 8 5 4 6 6 6 4 5 7 8 8 8 8 10 10 10 10
7 13 2 7 6 13 9 13 13 12 6 9 6 12 4 7 6 4 5 4 8 3 11 13 15 14 11 14 13 14 13 15 14 13 14 15 15 13 13 13 10 8 9 10 9 9 8 8 11 10 6 8 7 8 10 9 9 9 10 10 8 11 10 8 7 7 8 9 8 8 7 6 7 6 7 9 8 8 8 9 6 6 4 3 5 6 4 3 7 8 8 8 9 8 11 10 10
7 11 5 9 5 9 9 12 12 11 13 8 6 8 11 4 5 6 4 7 5 10 15 15 15 14 12 11 12 12 12 11 12 10 7 7 7 9 8 9 10 10 11 11 10 11 9 8 8 11 7 8 9 11 11 9 10 9 11 8 7 12 8 9 8 6 8 7 8 7 5 8 6 6 9 10 9 9 7 7 7 6 3 3 3 5 3 2 5 6 7 9 8 8 9 10 9
11 11 6 5 9 7 8 11 11 9 9 9 8 11 13 4 7 3 5 4 6 12 15 15 15 14 12 11 11 12 13 13 13 13 14 10 10 12 10 11 11 13 13 13 12 11 8 5 7 9 9 9 9 10 9 9 9 11 11 10 9 10 8 8 8 9 12 13 8 11 11 9 9 9 9 8 9 7 8 7 7 6 5 4 2 4 3 4 5 6 6 8 9 8 9 9 10
7 7 8 9 12 7 7 9 9 4 9 3 9 7 8 9 5 8 2 8 10 11 15 13 13 14 12 10 10 10 13 14 15 12 11 9 11 13 11 10 13 12 12 14 12 10 9 8 7 6 7 8 9 11 11 10 9 11 10 10 11 11 9 10 8 11 14 13 14 11 10 10 10 9 9 9 10 6 7 8 7 5 4 5 4 3 4 3 4 5 5 8 9 9 8 7 10
5 5 1 7 10 6 10 7 10 2 10 9 8 10 2 5 5 9 6 9 10 17 16 15 13 12 13 10 10 9 10 9 10 11 16 15 16 15 14 17 14 12 15 18 13 10 10 9 9 9 11 12 12 11 11 10 9 10 15 12 12 11 10 9 10 13 12 11 10 13 11 11 12 10 10 10 10 9 8 8 7 7 7 5 4 3 3 1 5 6 7 8 8 9 9 8 7
3 5 7 10 8 14 4 12 9 10 12 9 9 2 5 3 6 8 7 10 9 11 18 16 13 10 10 10 9 10 11 9 11 13 15 17 14 13 17 14 17 14 11 16 15 16 14 11 13 13 14 13 15 12 10 10 10 11 11 13 11 11 10 10 10 11 13 9 8 11 11 11 9 11 9 9 11 10 9 9 9 8 7 6 4 4 3 4 6 7 7 8 10 10 10 9 9
2 2 5 6 9 10 10 3 2 9 7 10 11 9 12 13 8 6 7 13 11 13 16 16 12 11 10 9 11 10 8 8 12 14 12 10 9 12 12 12 12 13 14 13 14 16 13 11 13 12 15 16 15 10 10 10 10 10 10 10 12 12 11 10 8 8 9 9 10 9 9 9 10 10 10 8 8 9 9 10 10 9 7 5 5 6 6 5 7 7 8 9 9 10 11 9 12
8 4 4 6 2 11 7 4 2 12 6 10 7 12 15 8 11 7 7 15 20 19 17 17 14 12 12 12 11 11 9 10 10 8 6 6 5 7 7 7 9 10 11 12 15 14 14 13 13 12 16 13 12 11 12 11 11 10 10 11 12 12 11 9 8 8 9 10 9 11 9 9 9 9 8 10 10 9 9 9 9 9 6 5 7 7 8 5 7 8 9 11 8 9 10 10 12
3 8 9 8 5 12 11 4 10 14 4 4 9 5 16 4 13 12 10 12 16 19 20 19 15 14 13 12 13 11 11 8 7 7 7 7 6 8 9 9 10 12 14 13 12 14 14 13 14 14 13 13 12 13 12 13 12 11 10 10 9 11 12 11 10 12 12 10 11 10 9 8 7 8 9 9 9 7 7 9 9 7 7 7 7 8 6 8 7 7 5 11 13 11 12 11 10
9 6 5 4 4 9 8 2 4 4 3 1 6 13 3 3 7 6 10 14 13 16 19 19 17 14 14 13 13 10 10 10 7 10 9 8 8 7 7 8 13 13 10 10 12 14 14 13 14 14 15 14 12 11 10 9 9 9 8 8 11 11 11 10 10 8 8 11 10 9 9 8 7 9 10 9 9 11 9 7 5 6 7 8 9 8 8 8 10 9 5 3 12 13 13 13 13
6 5 9 6 4 4 6 11 3 2 2 6 2 8 4 4 4 7 6 13 11 11 16 16 15 14 14 14 11 11 12 12 15 14 11 7 6 5 3 7 8 7 6 8 10 15 14 13 13 13 11 10 11 11 9 9 8 7 6 8 9 8 3 4 6 7 8 9 10 10 9 9 8 9 9 9 8 9 7 7 5 6 8 8 8 8 7 8 9 10 9 4 8 15 13 14 15
8 4 5 3 3 1 4 5 4 3 4 4 1 5 3 6 3 12 15 11 11 13 16 16 14 13 14 13 10 12 14 15 18 10 5 5 5 4 4 5 9 8 7 6 5 7 7 8 9 10 10 7 7 6 5 5 5 5 6 7 8 8 6 4 5 6 6 7 9 10 11 10 8 8 8 8 9 9 8 8 10 8 8 8 8 9 9 9 9 8 11 9 6 7 13 12 14
8 9 8 6 3 4 4 8 8 3 2 4 4 12 6 4 3 9 9 9 11 5 2 2 6 10 9 7 9 13 17 17 11 9 7 7 6 5 7 10 9 9 9 9 8 9 7 6 5 4 5 6 6 6 5 5 5 6 6 4 4 4 4 4 4 5 6 7 7 9 8 5 3 6 6 8 9 9 8 9 11 7 9 9 10 11 10 10 12 10 9 12 13 11 7 11 13
8 6 9 2 2 8 7 6 10 3 3 10 12 10 6 9 9 14 12 5 6 5 7 9 10 12 9 6 9 15 14 17 7 11 10 9 8 9 9 9 12 10 10 12 10 10 10 11 8 7 8 7 7 7 6 6 7 5 4 4 5 4 5 3 4 5 6 5 7 8 8 7 7 7 7 7 8 11 10 10 10 9 11 12 12 12 11 11 10 11 12 10 16 12 9 10 10
6 7 3 3 2 6 7 5 4 4 6 5 4 7 5 8 7 5 3 5 12 13 11 9 10 8 6 9 12 16 17 4 8 12 11 8 8 7 8 9 11 11 10 11 12 12 10 10 9 9 8 9 8 7 6 4 9 8 6 4 4 4 6 8 8 7 6 8 10 6 7 8 10 11 9 8 9 9 12 12 11 11 11 11 7 7 10 10 10 11 13 12 6 15 13 12 13
4 5 3 3 8 9 14 5 4 5 6 9 3 7 4 6 5 7 7 18 13 12 14 15 17 14 13 12 12 15 10 8 13 11 9 7 8 9 9 8 7 7 8 8 8 11 9 10 9 8 9 8 7 6 6 7 7 9 4 6 7 5 5 8 9 7 5 11 13 12 9 8 7 5 8 11 10 12 12 15 14 12 9 9 10 11 11 12 12 13 13 16 12 5 9 11 14
8 5 4 9 7 4 9 9 7 6 5 4 6 12 2 12 2 8 6 5 6 3 2 2 4 10 17 20 18 13 12 13 11 8 6 7 9 10 10 8 8 7 6 6 4 5 4 4 4 5 7 8 8 6 9 13 12 8 5 4 3 5 6 5 5 2 8 12 10 7 8 9 9 9 7 7 7 10 11 11 10 11 12 10 13 13 11 12 12 11 11 13 18 15 13 11 7
2 5 7 4 4 5 10 9 12 6 3 4 10 12 8 16 12 15 13 12 10 15 6 5 1 3 5 7 6 9 7 6 7 6 7 7 9 9 9 7 8 8 7 6 4 3 2 2 4 5 6 7 7 8 11 11 11 9 10 11 7 4 3 4 6 9 10 11 12 12 13 9 10 10 8 9 9 10 10 12 11 10 11 10 11 13 14 14 14 14 15 15 16 20 17 12 8
4 7 10 9 5 5 5 6 7 14 8 7 7 13 8 14 12 13 14 14 14 11 13 12 10 4 5 4 5 6 7 7 7 6 9 8 9 9 7 6 7 7 7 5 5 4 1 1 3 4 5 6 7 8 11 11 12 14 12 10 9 5 7 8 13 10 8 11 12 8 8 11 13 13 11 11 10 8 9 8 8 9 10 11 11 10 11 11 12 13 15 16 14 12 20 16 13
6 14 13 10 8 3 2 4 5 3 6 4 4 15 14 10 14 13 11 9 12 12 17 15 14 12 5 3 4 6 8 9 9 9 10 9 7 8 6 5 5 6 4 4 4 3 5 3 2 5 6 8 10 10 12 13 14 15 14 15 16 17 16 16 14 10 9 8 10 12 12 11 11 12 10 8 9 9 11 11 12 11 8 7 8 9 11 13 14 14 12 12 13 12 12 20 16
12 7 12 10 6 6 7 4 7 6 4 5 8 12 22 10 9 7 10 9 14 17 17 18 17 14 10 2 4 7 9 8 10 10 10 9 8 6 6 4 5 6 5 3 4 5 3 2 3 5 6 7 8 10 12 14 16 12 15 18 21 19 20 20 16 13 10 9 10 11 11 12 13 13 14 11 11 12 12 12 11 11 9 9 7 11 13 10 10 8 10 10 10 12 15 18 16
13 5 12 11 11 10 7 6 4 2 3 6 11 7 16 6 6 5 10 14 17 17 18 17 17 14 10 6 7 8 8 9 10 10 10 9 7 5 5 3 3 4 4 4 2 4 7 6 4 5 7 8 11 13 13 15 12 17 18 19 16 16 15 14 11 10 11 12 9 10 14 13 14 13 15 15 14 14 13 12 11 10 11 9 7 6 8 10 13 13 12 12 12 12 12 10 16
10 7 6 8 8 7 6 5 7 4 9 6 6 4 13 5 9 11 9 12 12 12 14 14 15 14 13 11 11 11 9 10 11 11 9 8 6 6 4 4 6 6 3 2 2 1 2 5 7 7 8 11 15 17 18 14 12 16 17 18 18 16 15 12 12 12 13 13 15 13 11 10 10 11 10 12 12 14 13 12 12 12 11 9 8 10 8 8 9 11 13 13 12 12 10 13 16
6 10 9 8 11 5 5 10 7 8 4 11 6 3 10 8 6 8 10 5 6 6 6 9 10 13 13 13 13 12 11 11 10 9 9 8 7 9 7 7 6 7 7 7 5 2 4 7 7 9 12 15 19 21 19 17 11 12 19 21 20 18 15 14 14 14 15 15 14 13 10 8 9 11 15 12 14 14 13 12 13 12 9 9 10 11 11 11 11 11 11 9 10 12 12 10 9
8 11 10 9 3 10 10 8 10 12 9 10 5 3 4 12 3 5 7 7 7 6 6 8 10 11 11 10 12 13 13 13 13 13 13 13 13 13 12 11 8 6 8 8 7 6 5 6 7 9 13 19 22 21 15 14 14 16 16 18 17 16 14 13 15 14 15 13 11 12 9 8 8 8 11 11 10 12 12 11 11 10 10 10 11 12 11 11 11 10 10 11 10 9 8 10 9
9 9 13 17 10 10 10 5 10 9 14 3 1 2 7 6 3 3 6 9 8 9 8 8 10 10 10 12 13 13 13 13 14 14 14 15 14 13 13 11 8 8 9 8 9 5 5 6 7 11 17 18 20 17 13 12 16 19 19 19 12 12 14 13 12 13 13 13 12 11 10 9 9 10 10 11 10 11 10 11 11 12 11 12 11 10 10 10 11 11 11 10 10 11 12 11 12
10 13 13 15 14 12 13 7 8 7 10 4 2 5 10 5 5 3 6 7 7 8 9 10 11 11 10 11 11 11 12 13 14 13 13 13 14 12 10 10 10 7 7 7 8 6 3 4 7 13 16 16 17 13 11 12 19 19 14 14 13 12 14 14 12 13 12 12 12 12 12 12 10 12 12 13 12 11 10 9 10 11 10 9 10 11 10 10 10 11 10 11 11 11 9 11 11
19 10 19 15 18 23 16 15 17 16 13 5 6 7 14 13 7 5 6 6 5 7 8 9 10 11 10 10 13 14 14 13 15 15 13 13 12 11 11 11 9 7 7 7 6 7 5 3 6 11 13 17 17 18 11 14 19 14 5 9 11 8 11 12 11 11 12 12 12 12 12 12 12 11 13 11 10 11 10 10 8 8 8 8 6 5 8 8 9 9 9 10 9 9 10 10 8
6 11 12 14 19 14 11 17 13 11 11 7 8 8 4 6 4 6 6 5 6 6 8 8 11 11 11 14 14 13 14 16 13 12 14 13 10 9 9 9 8 7 8 7 6 6 5 5 6 10 13 15 17 16 12 17 19 18 12 9 8 6 6 8 9 10 10 11 11 12 11 10 10 10 8 10 10 12 12 11 9 9 6 6 7 8 10 10 10 10 7 8 8 6 10 9 9
13 12 16 13 7 20 14 5 4 7 13 8 5 4 4 4 5 6 7 7 5 5 7 9 10 10 10 13 13 13 13 15 16 16 16 17 16 15 12 12 12 12 11 9 9 7 6 4 5 7 8 11 13 13 16 19 18 18 13 10 7 6 8 10 11 11 12 11 10 9 10 9 8 8 8 8 10 9 10 11 10 8 8 10 11 11 10 10 11 10 11 10 9 7 9 10 9
20 14 14 6 7 12 17 14 7 9 14 11 4 7 10 11 13 10 10 10 9 8 7 8 9 10 12 13 14 15 15 14 15 15 15 15 15 15 15 14 14 15 15 16 17 13 11 10 8 8 8 9 9 10 8 10 11 11 11 8 6 6 8 9 11 11 12 12 10 9 7 9 10 10 9 9 9 11 10 11 10 9 8 8 9 9 9 10 10 10 8 9 9 9 9 7 8
19 17 15 21 9 7 6 18 8 10 10 9 5 4 7 8 7 12 15 14 12 9 8 7 10 11 12 13 14 14 14 15 14 14 13 14 16 17 18 17 19 20 19 17 17 15 13 10 11 11 11 9 9 9 8 8 7 8 6 6 7 9 11 12 11 11 10 11 11 10 10 9 8 8 9 7 8 8 9 9 10 9 8 8 7 7 7 9 8 9 8 9 8 8 8 8 6
7 12 11 3 15 10 13 16 13 19 8 8 5 4 12 16 9 10 12 12 12 11 8 8 10 13 14 14 14 15 15 16 16 16 17 17 18 18 18 19 19 19 17 17 16 15 17 16 15 15 12 10 9 7 7 7 6 6 7 6 7 10 11 11 9 9 10 10 10 9 8 7 8 7 7 7 8 10 10 10 9 10 10 9 9 7 7 9 8 8 9 8 7 8 8 8 7
6 11 6 6 8 6 14 6 7 13 19 13 16 9 16 13 8 8 12 12 10 8 9 8 11 14 16 16 15 14 14 14 16 16 16 17 17 17 16 15 15 14 14 14 14 15 16 17 17 16 14 13 12 13 11 9 8 7 9 10 9 8 7 9 7 7 9 7 7 6 8 8 9 9 9 9 10 10 11 11 11 10 10 10 9 8 7 9 8 8 7 8 8 8 9 7 8
19 19 15 17 15 12 10 8 4 7 15 17 17 17 13 11 4 5 14 12 10 8 10 12 12 15 13 13 14 14 14 14 14 14 14 14 15 16 16 15 13 15 16 16 15 15 17 17 16 16 15 15 14 13 11 10 6 4 9 11 9 6 8 6 6 5 7 7 7 6 7 8 9 8 9 10 9 13 11 12 12 10 8 9 8 9 9 10 10 9 8 7 9 8 7 8 7
Wind_Speed
2 1 1 0 1 1 1 5 1 2 1 3 2 1 3 2 2 5 4 3 1 3 3 1 1 3 0 3 5 4 2 7 6 8 3 2 4 4 10 9 11 11 11 9 9 10 11 14 15 16 17 18 17 17 16 17 17 17 17 18 18 19 20 20 20 20 20 20 20 20 20 20 20 19 20 20 19 19 19 20 20 20 19 18 18 18 18 18 19 20 19 19 19 18 18 18 18
1 1 0 0 1 1 0 1 3 2 5 2 7 2 5 1 1 5 4 0 2 1 1 3 7 8 11 11 7 2 2 1 3 2 1 2 3 5 6 9 11 12 10 9 9 9 10 12 15 15 16 18 18 18 18 17 17 16 17 18 18 18 19 19 19 20 19 19 19 20 20 21 22 21 20 20 20 19 17 18 20 20 19 18 18 18 18 18 18 17 18 18 18 17 16 16 15
0 1 1 2 2 3 1 4 1 1 2 2 6 8 2 1 5 3 1 1 3 1 2 4 6 5 3 3 3 1 1 1 2 2 2 4 3 1 4 8 9 10 10 7 8 9 8 12 16 16 16 18 18 18 18 17 17 16 16 16 17 17 17 18 18 19 19 19 19 20 19 20 20 22 21 20 18 16 16 17 19 20 19 18 17 18 18 17 17 17 18 17 16 16 15 14 13
2 1 2 3 1 3 1 3 5 7 2 6 4 6 4 3 4 2 0 5 6 4 2 2 3 2 4 3 2 1 1 1 0 0 2 2 2 1 5 9 9 8 7 7 8 8 8 14 17 16 17 18 18 18 18 18 17 17 16 15 16 17 17 17 18 18 18 19 18 18 19 19 19 20 20 20 18 16 13 14 16 19 18 17 17 16 16 16 16 16 16 16 16 15 14 13 12
0 1 1 2 4 1 2 1 3 3 4 4 3 3 4 5 6 4 2 5 8 4 1 1 2 4 1 3 0 1 1 2 1 2 1 1 1 4 6 9 10 9 8 8 8 8 8 18 16 16 16 17 18 18 17 18 17 17 16 16 16 16 16 16 17 17 18 18 18 17 18 19 19 19 20 19 17 17 16 14 13 15 16 16 15 15 15 14 15 16 15 15 15 14 12 12 11
2 1 2 1 0 2 4 1 0 3 7 4 1 4 4 4 2 1 3 7 2 1 2 0 3 3 1 2 1 1 2 1 2 1 1 2 4 6 7 8 9 8 8 7 7 7 7 17 16 15 15 17 17 17 17 18 18 16 16 16 15 15 15 15 16 16 17 18 17 17 17 18 18 19 19 19 17 16 17 16 16 16 17 16 16 16 15 15 14 14 14 14 13 13 12 12 12
1 3 4 3 2 4 4 2 3 4 9 8 5 5 5 3 2 2 3 5 2 3 2 1 3 4 3 1 1 1 2 1 2 1 2 1 8 7 6 8 9 8 8 7 6 6 9 15 15 15 16 17 18 17 17 17 17 17 17 16 16 16 16 15 15 15 16 16 16 16 17 17 17 18 18 18 17 16 16 16 17 17 17 17 16 16 15 15 15 14 14 13 13 12 12 12 13
0 2 1 2 1 1 0 1 4 5 5 7 3 5 10 8 1 3 2 1 2 0 1 1 2 3 1 3 1 0 5 5 2 2 2 5 7 7 6 7 8 8 8 7 6 5 14 14 14 14 16 17 18 17 17 17 16 16 16 16 16 16 16 16 15 14 14 15 16 15 16 15 17 17 18 17 16 15 15 15 15 16 16 16 16 16 15 15 15 14 14 13 13 12 12 13 14
3 4 0 4 1 2 1 2 5 3 7 4 9 9 13 9 4 2 3 2 0 2 3 1 1 3 3 0 1 1 2 4 4 6 5 6 7 6 5 7 7 8 8 7 6 5 8 13 12 14 16 17 17 17 16 16 15 15 15 15 14 14 15 15 16 15 14 13 15 15 14 15 15 16 16 16 16 14 14 13 13 13 14 15 16 16 15 15 15 15 14 14 13 13 12 13 14
2 2 1 2 3 2 2 5 0 4 4 4 5 10 8 4 1 3 3 4 3 5 2 2 1 2 3 3 1 2 2 3 4 7 6 6 6 6 6 6 6 8 8 7 6 7 7 14 12 13 14 16 16 16 14 14 15 15 15 14 12 13 13 13 13 13 13 12 13 14 12 13 13 14 14 15 15 14 13 12 11 11 11 12 13 14 14 15 15 15 14 14 13 13 12 14 15
0 4 2 3 1 0 3 5 5 7 4 4 9 10 13 7 2 2 4 1 2 5 1 2 3 3 2 1 1 1 2 5 4 4 5 6 7 7 7 7 6 7 8 7 7 7 7 8 15 11 12 14 14 14 13 13 13 13 13 12 12 12 13 12 13 13 12 13 14 14 13 12 13 12 12 14 15 14 12 11 10 9 10 11 12 13 14 15 15 14 13 13 12 11 12 13 14
1 1 1 3 2 5 4 3 5 7 8 4 5 5 2 2 4 3 4 7 3 3 3 2 4 4 3 1 1 1 3 5 4 5 5 6 7 7 7 7 8 7 7 7 7 7 7 7 8 11 11 12 13 13 13 12 12 12 12 12 12 11 12 11 12 13 14 12 13 13 13 12 12 10 9 12 13 13 12 10 8 8 9 11 12 13 14 14 14 13 12 12 12 11 11 13 14
3 2 5 3 2 1 1 1 5 3 5 5 3 3 1 5 4 6 4 5 4 4 0 4 5 2 2 2 1 1 3 3 4 5 6 5 7 7 7 7 8 9 8 8 7 8 7 7 7 8 9 12 11 11 11 11 10 11 11 11 11 11 11 11 12 13 13 13 13 14 14 13 11 11 10 10 12 11 11 9 8 7 8 10 11 12 13 13 14 13 12 12 11 11 12 12 13
3 5 5 2 1 2 2 3 1 2 4 4 3 5 3 0 2 4 9 6 1 1 2 2 3 2 2 2 2 1 3 6 6 6 5 6 6 8 8 7 7 8 9 8 8 7 7 7 6 7 7 7 5 9 9 10 10 10 11 11 11 11 11 11 11 10 11 11 12 13 14 13 12 11 11 10 11 10 9 9 8 7 8 9 10 11 12 13 13 13 12 11 11 12 12 13 13
1 2 2 2 0 1 3 2 2 3 5 2 4 4 6 2 2 4 5 8 1 1 1 2 1 1 2 5 2 3 6 8 7 7 6 7 8 8 8 7 7 6 6 9 8 8 8 6 7 6 6 6 5 5 4 7 11 10 10 10 11 11 11 11 11 10 12 13 14 14 13 14 12 13 12 12 12 9 9 8 7 7 8 9 10 11 11 12 12 12 12 10 11 12 13 14 13
3 4 2 1 2 2 4 2 1 1 6 1 4 4 2 3 2 3 1 2 3 1 2 1 5 1 1 3 1 5 12 10 8 7 7 7 8 9 8 7 7 5 4 6 8 8 7 7 6 6 6 6 5 5 6 5 9 10 11 12 13 11 11 11 12 12 12 13 13 12 12 10 10 9 14 10 13 10 7 6 7 7 8 9 9 9 10 11 11 11 11 11 11 12 14 14 13
2 3 1 2 3 2 3 3 3 2 6 4 3 6 2 1 0 2 1 2 10 1 3 4 4 4 2 1 4 10 11 9 8 9 8 7 6 7 8 5 6 5 4 5 6 8 8 8 8 6 7 7 6 6 5 6 8 11 9 11 12 11 11 13 14 14 12 12 12 11 8 5 4 5 7 6 11 7 7 7 6 7 7 8 9 9 9 10 10 10 12 13 11 10 14 15 13
1 2 5 1 4 3 4 5 6 0 1 5 8 3 1 0 0 0 3 8 4 4 6 3 5 5 4 4 8 8 11 11 8 10 7 8 6 7 9 4 8 6 6 5 6 7 7 7 7 8 6 7 6 5 4 4 5 8 6 6 6 8 9 9 8 7 8 5 11 8 6 5 4 4 5 8 4 7 7 8 6 6 7 7 8 8 9 9 9 11 12 12 12 10 13 9 9
2 1 3 7 4 6 5 3 5 0 4 5 6 4 3 3 5 1 4 1 1 3 4 3 2 4 7 8 9 10 10 10 8 7 9 10 8 10 6 5 8 6 6 5 4 7 7 6 8 7 7 6 7 6 5 5 6 5 5 5 5 7 7 6 3 6 4 5 5 5 5 5 5 4 4 6 5 9 8 8 6 6 6 6 6 7 8 9 9 11 12 12 11 10 8 7 7
3 5 3 8 5 4 4 3 4 3 3 8 7 6 2 3 1 1 3 3 1 6 4 1 2 3 5 7 8 9 10 10 8 9 8 8 8 8 7 5 7 5 6 4 5 5 7 6 7 7 7 7 7 6 5 5 4 4 5 5 5 5 4 5 4 4 4 4 5 5 5 5 5 5 9 12 9 4 5 7 7 6 6 5 5 4 6 9 11 11 10 11 8 5 6 6 6
2 1 4 4 3 2 4 6 9 9 3 4 2 3 2 1 2 2 7 5 1 4 5 7 11 10 9 9 9 10 10 11 10 9 9 8 7 5 5 5 4 4 4 5 4 5 6 7 7 8 8 8 7 6 6 5 5 5 5 5 5 5 5 4 5 4 4 5 5 4 4 4 4 4 4 4 4 5 3 5 3 2 3 4 5 4 4 4 5 5 5 6 6 6 6 6 6
3 7 3 4 1 2 6 5 7 2 3 2 3 1 3 0 1 5 7 5 5 6 7 5 4 10 13 14 11 9 10 12 12 12 9 8 9 7 6 6 5 4 4 6 4 7 4 9 9 7 8 7 7 6 6 6 7 6 5 5 5 4 4 4 4 4 5 5 4 5 4 5 3 3 4 5 5 4 3 5 4 1 2 4 3 4 4 4 4 5 5 6 5 5 6 5 5
4 2 3 6 5 6 2 2 3 4 0 1 3 2 1 1 2 1 3 4 1 4 1 5 6 7 6 6 9 10 11 11 11 11 10 9 9 8 7 6 7 6 4 5 3 5 5 4 8 6 6 5 6 6 6 5 5 5 5 5 5 4 4 4 4 4 4 5 4 4 4 5 4 3 4 4 4 5 5 5 4 3 3 3 3 4 3 3 4 5 5 5 5 6 6 5 5
2 3 1 4 5 9 6 8 8 4 3 4 2 6 1 3 3 1 1 2 6 3 5 7 9 8 7 8 8 8 8 10 9 8 8 10 10 9 8 7 6 4 5 6 5 5 5 5 5 7 4 5 4 6 6 5 6 5 5 6 4 6 6 5 4 4 4 3 4 5 3 3 4 4 4 5 4 4 4 5 4 4 3 2 3 4 3 2 4 5 5 5 5 5 6 6 5
4 4 4 5 4 5 6 7 7 6 6 3 1 4 7 0 2 3 1 4 3 5 8 9 9 8 6 7 7 8 8 8 9 7 5 4 5 6 5 5 6 6 7 6 6 5 5 5 5 8 5 6 6 6 7 5 5 5 6 5 4 7 5 5 5 4 4 2 3 2 3 5 3 3 5 5 5 3 3 4 4 4 2 2 2 3 2 2 3 4 4 5 5 5 5 6 5
5 6 2 3 5 5 5 8 8 6 4 2 4 6 6 2 1 1 2 2 3 6 9 9 9 8 8 7 7 8 8 9 8 8 9 6 7 8 7 7 7 8 8 7 7 7 5 3 4 5 4 5 5 6 5 5 5 6 6 6 5 5 5 5 6 5 4 3 4 6 5 5 5 5 5 5 5 3 3 4 3 4 3 2 2 3 2 2 3 4 4 5 5 5 5 5 5
4 5 5 6 8 4 5 3 5 2 4 2 3 6 4 5 2 2 0 5 7 6 9 8 8 8 8 7 6 6 8 9 9 7 7 6 7 8 7 7 8 8 7 8 7 6 5 4 3 3 4 5 6 7 5 5 5 6 5 6 6 6 5 5 5 6 5 6 6 7 7 6 6 5 5 5 6 3 3 4 4 3 3 3 2 2 2 2 2 3 4 5 5 5 5 4 5
3 3 0 4 6 4 6 5 7 0 4 5 5 5 1 3 3 3 3 6 7 10 10 9 7 7 7 6 6 6 6 6 6 6 10 10 9 8 9 9 9 8 9 9 8 5 5 5 5 6 7 8 7 6 6 5 5 6 9 6 6 6 6 6 5 7 7 5 5 7 6 6 7 6 6 6 6 5 5 5 4 4 4 3 2 2 2 1 3 3 4 5 5 5 5 4 4
1 4 2 6 4 5 2 6 5 6 4 4 5 1 3 1 3 3 2 6 6 7 10 9 7 6 6 6 5 6 6 6 6 7 8 9 6 7 10 9 10 9 6 9 9 7 7 7 8 8 9 8 7 5 5 6 6 6 6 6 5 6 6 5 6 6 7 5 5 5 6 6 5 6 6 6 6 5 5 5 5 5 4 3 2 3 2 3 4 4 4 5 5 6 6 5 5
2 1 2 3 4 5 6 1 1 5 2 7 6 2 7 6 5 4 5 8 7 9 7 8 6 5 5 5 6 5 4 5 7 6 5 4 5 7 7 7 7 8 8 6 7 8 7 6 6 7 8 7 7 6 6 6 6 5 4 6 7 6 5 5 4 4 5 5 5 5 5 5 5 5 6 5 4 5 5 6 6 5 4 3 3 3 3 3 4 4 4 5 5 6 6 6 7
3 1 2 2 0 4 3 1 1 5 2 7 5 4 7 5 7 5 5 9 13 10 10 8 7 6 5 5 6 6 6 5 4 4 4 4 4 4 5 4 6 6 5 6 10 9 9 8 7 6 7 6 7 7 7 6 6 5 5 5 6 5 5 4 4 5 5 6 5 6 5 5 5 5 5 5 6 5 5 5 5 5 4 4 4 4 4 3 4 4 5 6 5 5 6 5 6
1 3 3 3 3 5 7 2 7 7 0 2 5 1 8 3 8 8 7 8 9 12 11 10 9 7 6 6 7 6 6 3 3 4 5 4 4 4 5 6 7 7 7 6 7 8 9 8 7 7 7 8 8 8 6 6 6 4 5 4 4 2 1 3 5 6 6 5 5 5 5 5 4 4 5 5 5 3 3 5 5 4 5 4 4 4 4 4 4 4 3 7 7 6 6 5 5
4 2 2 1 2 5 4 0 2 2 1 0 3 5 1 1 5 3 3 8 6 8 11 11 11 9 7 7 6 5 5 4 4 6 5 3 2 1 2 4 7 5 4 6 6 8 8 7 8 6 6 7 7 5 5 5 6 5 4 5 6 5 6 5 4 3 3 5 4 4 4 4 4 5 5 5 5 7 5 4 3 3 4 5 4 4 4 5 5 5 3 1 7 6 6 7 7
2 2 3 2 2 1 1 5 1 1 1 3 0 1 2 2 2 5 4 7 7 6 10 11 9 7 9 7 5 6 7 6 9 7 4 2 1 1 2 2 1 4 3 3 2 6 6 6 4 3 2 3 4 3 3 4 4 4 4 4 5 4 2 3 3 3 4 5 5 6 4 5 4 5 5 5 4 5 4 4 2 3 3 4 4 4 4 4 5 6 5 3 4 7 6 7 8
3 0 2 1 0 1 2 1 2 1 3 2 0 2 2 3 2 7 9 5 5 6 8 9 9 8 8 7 5 7 8 8 11 1 3 3 1 0 1 4 6 5 4 3 3 3 2 3 2 2 2 2 3 3 2 2 3 3 4 4 5 5 4 3 3 3 4 5 5 6 6 4 3 3 5 5 5 4 3 3 3 3 1 4 5 5 5 5 5 5 7 5 3 4 7 7 8
5 6 4 3 1 1 1 3 3 1 1 1 2 5 4 3 2 5 4 5 7 4 1 1 4 6 6 4 5 8 9 10 2 7 5 4 3 3 3 4 5 5 6 6 6 6 5 4 3 3 3 4 4 3 2 3 3 3 3 2 2 2 2 2 3 3 3 4 2 3 3 1 0 1 2 4 5 5 5 4 4 4 4 4 6 6 6 6 7 7 6 8 8 6 4 6 7
5 4 6 1 1 4 4 4 5 2 1 5 6 5 4 6 6 8 6 2 4 4 4 5 6 7 6 4 6 9 9 7 6 7 6 5 5 4 4 5 7 7 7 8 7 7 6 6 5 5 5 4 4 4 3 2 1 1 2 2 1 1 1 1 2 3 3 2 3 3 2 3 4 4 3 3 4 6 5 6 5 5 5 6 7 7 7 7 6 7 7 5 10 7 5 6 6
4 5 2 0 1 3 4 2 2 2 3 2 2 5 2 5 5 3 1 2 7 9 5 6 7 5 4 6 8 10 10 2 6 6 4 5 5 5 4 3 5 6 5 6 6 5 4 4 5 5 4 5 4 4 3 1 4 3 3 1 2 2 3 4 4 4 4 4 4 1 2 2 1 3 5 4 5 4 5 6 6 6 6 7 4 4 6 6 6 6 7 6 3 8 6 7 7
3 3 1 1 3 5 9 3 2 2 2 5 2 4 2 3 3 5 1 3 2 2 3 4 5 6 5 6 7 9 2 5 7 2 3 5 5 5 5 5 4 4 3 3 2 3 3 2 1 2 3 3 2 2 3 4 3 1 1 3 4 1 2 3 3 1 3 6 6 7 5 4 4 3 4 5 5 7 7 6 7 6 6 5 5 6 7 7 7 8 8 9 7 2 5 6 8
5 4 2 5 3 1 3 2 2 4 2 2 2 7 1 8 0 4 3 3 3 2 1 0 1 3 3 2 2 5 6 4 3 2 4 5 5 5 5 5 5 4 4 4 3 3 2 2 2 3 4 3 2 2 5 6 8 7 4 3 2 2 2 2 2 2 5 7 6 3 5 5 6 5 4 4 4 5 6 6 5 6 7 5 7 7 7 7 7 7 6 8 10 9 5 6 4
1 3 3 1 2 2 5 4 5 2 1 3 6 5 4 9 5 7 8 6 6 10 3 3 1 0 1 2 3 4 4 4 3 4 5 5 5 4 4 4 5 5 4 4 2 2 1 1 2 3 4 5 5 5 5 2 2 5 6 7 5 2 1 1 3 4 5 5 6 5 6 5 6 6 5 5 5 6 6 5 5 5 6 5 5 7 8 8 8 8 9 9 10 10 9 5 4
1 4 7 6 3 4 3 4 4 6 2 3 3 4 3 8 5 8 7 7 8 6 9 8 7 3 1 0 2 3 5 3 5 4 6 5 4 3 4 4 5 4 4 3 3 2 1 0 2 3 3 3 4 6 7 7 6 5 7 6 5 4 3 3 5 6 5 6 6 3 4 6 6 6 6 7 6 5 5 4 3 4 5 6 6 6 6 6 7 8 9 9 8 8 9 8 6
3 5 9 6 5 2 1 2 1 1 1 1 1 6 1 4 7 8 5 5 7 7 11 10 9 7 4 2 3 4 5 5 6 6 6 6 4 5 4 4 3 3 2 2 3 2 2 1 1 4 4 3 4 6 8 6 4 1 6 9 10 9 8 8 8 6 3 3 4 6 5 4 5 6 6 5 6 5 5 5 6 6 5 5 4 5 6 8 8 8 7 7 7 7 6 10 9
3 3 9 7 4 4 5 2 4 2 1 2 5 4 8 1 5 4 7 3 8 10 10 12 11 10 7 1 3 4 5 5 6 7 7 6 5 4 3 1 2 3 2 1 3 3 2 1 2 3 4 4 5 6 8 7 5 7 8 10 10 10 11 9 6 4 5 2 2 3 5 5 7 8 8 6 6 6 6 6 7 6 5 5 4 6 7 6 5 5 6 6 6 7 9 10 9
4 2 8 7 7 7 4 3 2 0 1 2 5 3 6 1 2 4 6 5 10 10 10 9 11 9 7 4 4 5 6 6 6 6 6 6 4 3 1 0 2 2 2 1 1 2 3 3 2 3 5 6 7 9 8 5 6 10 10 8 7 7 7 6 5 6 5 6 5 6 8 7 7 6 6 7 7 7 6 7 7 6 6 6 4 4 3 5 7 8 7 7 7 7 7 6 8
5 4 4 5 5 4 3 3 3 1 2 2 2 1 4 0 2 5 4 4 7 6 8 7 7 8 8 7 7 7 6 6 7 7 6 5 3 3 2 1 2 1 1 1 1 0 2 3 5 5 5 7 9 11 10 6 7 8 9 10 11 8 7 6 7 7 7 8 8 9 6 5 5 6 6 8 7 8 8 7 7 7 7 5 4 4 4 5 5 6 8 8 7 7 6 7 9
3 6 5 4 6 3 3 5 2 3 1 5 1 2 3 1 1 3 3 2 3 3 3 4 5 6 8 8 8 7 6 6 6 6 5 5 5 6 5 4 4 4 5 5 4 1 3 5 5 7 8 9 11 11 9 8 6 7 9 10 11 9 7 8 8 8 8 9 8 8 6 5 5 6 8 7 8 8 8 7 8 7 5 5 5 5 6 6 6 7 6 6 6 7 7 6 6
6 3 4 5 1 5 3 3 5 4 2 5 3 0 3 4 0 2 3 3 3 3 3 3 4 5 6 6 7 8 8 8 8 8 8 8 8 9 8 7 5 4 5 5 3 4 4 4 5 6 9 12 9 7 7 8 8 9 10 10 7 5 4 6 9 8 9 8 7 7 5 5 5 5 6 6 6 7 7 6 7 6 6 5 6 6 6 6 6 6 6 6 6 6 6 6 6
3 5 7 8 1 2 1 1 2 2 5 1 1 2 3 3 1 1 2 4 4 5 4 4 4 5 6 7 8 8 8 8 8 9 9 9 8 7 8 7 5 4 5 4 5 4 4 4 4 8 11 11 10 8 8 7 8 10 11 10 6 4 5 5 7 8 8 7 7 7 6 5 5 5 5 6 6 7 6 6 6 6 6 6 6 6 6 6 6 6 6 7 6 7 7 7 6
6 6 6 6 3 2 4 2 1 3 4 2 1 3 3 0 2 2 2 3 4 5 5 6 6 6 6 7 7 6 7 7 7 6 7 7 6 5 5 6 6 4 4 4 5 4 2 2 4 7 11 10 8 6 6 6 10 10 9 8 6 5 6 6 6 7 7 7 7 7 7 6 6 7 6 7 7 7 6 6 6 6 6 6 6 7 6 6 6 6 6 6 7 6 5 7 7
9 4 9 7 7 5 4 3 5 7 5 2 3 1 3 6 2 3 2 3 3 4 5 5 5 6 6 7 8 9 8 8 7 7 7 8 7 6 6 6 5 4 4 3 4 5 3 3 4 7 8 9 8 7 5 8 9 5 3 5 3 3 4 5 5 5 6 7 7 7 7 6 6 6 7 6 6 7 7 6 6 5 5 5 4 3 2 5 5 5 6 6 5 5 6 6 5
1 4 6 7 7 6 3 6 4 3 4 2 4 0 2 0 1 3 2 3 4 4 5 4 5 6 7 8 8 7 8 9 6 8 9 9 6 5 5 5 4 4 4 4 4 3 2 3 4 6 8 9 8 9 7 7 8 8 8 7 3 3 3 4 3 3 5 6 6 7 6 6 6 6 5 5 6 7 7 7 6 6 4 4 5 5 6 6 6 6 5 5 5 4 6 6 5
4 5 5 5 3 11 6 2 2 4 7 1 1 0 0 1 3 3 3 3 2 3 4 4 4 6 6 7 7 8 8 8 9 9 9 11 10 10 8 8 8 8 7 6 6 4 4 3 3 4 4 4 4 4 6 8 6 6 7 5 4 3 4 5 6 6 6 6 5 5 6 5 5 5 5 4 6 6 6 7 6 5 6 6 6 7 7 6 7 6 6 6 5 5 5 6 6
7 3 7 2 3 5 7 4 2 3 5 1 2 2 4 5 2 5 5 6 5 5 4 3 4 6 8 8 8 9 9 9 9 10 10 10 9 10 9 8 9 10 10 11 12 9 7 6 6 6 6 6 6 6 6 5 5 5 6 5 4 4 5 6 7 6 6 5 4 4 4 5 6 5 5 5 5 6 6 6 6 5 5 5 6 6 6 7 6 6 5 6 5 6 6 4 5
9 9 8 7 1 2 2 6 1 2 1 1 1 2 1 4 2 6 10 8 8 6 5 3 5 6 8 8 9 9 9 9 8 8 7 7 8 8 9 10 12 12 12 11 10 9 8 7 7 7 7 6 6 6 5 5 3 3 2 4 4 5 5 6 6 7 6 6 6 5 5 4 5 5 5 4 5 5 5 5 6 6 5 5 5 5 5 5 5 6 5 5 5 5 5 5 4
5 7 4 1 6 4 4 4 5 7 3 3 1 1 3 5 3 6 8 8 7 7 5 5 5 8 8 8 8 8 8 7 8 8 8 8 8 10 11 12 12 11 11 9 9 8 10 10 10 9 8 7 6 5 3 2 1 1 2 3 4 3 5 5 5 5 6 6 6 5 4 4 5 4 4 4 5 6 6 7 6 6 6 6 6 5 5 6 5 5 5 5 5 5 5 5 4
3 4 1 1 3 2 6 2 2 5 6 5 5 1 6 6 4 4 7 7 6 4 5 4 6 9 10 9 8 7 7 6 7 8 9 10 10 11 10 10 9 9 9 9 8 9 9 9 10 10 9 9 7 5 3 3 1 1 0 2 2 2 3 5 4 4 5 5 5 4 4 4 5 6 6 6 6 6 7 7 7 7 7 6 6 5 5 5 5 5 4 5 5 5 6 4 4
9 8 7 9 8 5 5 3 1 3 5 4 6 5 5 5 1 2 8 6 6 5 6 7 8 9 8 7 9 8 8 9 9 9 9 9 10 11 10 9 8 9 10 10 9 8 9 10 9 8 8 8 9 8 6 3 2 1 3 3 5 3 2 0 2 2 4 4 4 4 4 4 5 5 6 6 6 6 6 8 7 7 6 6 6 6 6 6 6 6 5 4 5 6 5 5 5
Wind_Direction
202 357 354 53 42 113 52 359 154 310 69 256 316 181 262 222 272 334 277 360 85 278 250 334 164 8 205 186 170 163 216 139 198 126 212 241 316 174 136 109 122 128 135 137 142 135 135 134 134 135 133 131 127 124 123 123 124 125 124 124 126 127 127 127 127 126 126 125 124 124 124 123 121 120 122 123 122 120 120 122 123 118 117 110 108 102 101 101 103 105 107 104 100 94 90 89 87
84 58 51 334 284 48 271 122 98 352 36 25 248 126 250 259 73 218 253 73 215 151 286 126 79 70 61 81 103 126 17 309 226 229 254 32 35 63 118 112 129 133 138 139 138 135 136 136 134 134 134 131 130 127 126 125 125 127 127 127 128 127 128 128 128 127 126 125 125 127 127 125 124 123 122 123 125 125 126 127 125 123 113 112 110 107 103 100 98 96 97 96 93 92 92 88 85
47 73 28 35 18 84 88 38 262 65 119 251 269 208 317 287 207 264 198 341 316 217 268 58 78 60 43 24 25 79 216 126 233 266 295 333 96 22 82 108 120 125 134 133 133 134 136 137 135 135 135 133 131 129 128 126 127 129 130 128 128 128 127 127 128 128 127 127 127 128 126 124 123 122 122 123 125 126 130 129 127 124 116 117 111 111 105 103 102 102 99 95 90 86 82 77 73
71 89 168 74 241 24 65 31 84 131 146 211 302 264 213 193 254 206 192 245 245 248 295 318 48 283 145 117 173 122 75 295 216 349 10 39 40 155 109 111 112 121 128 133 133 137 139 140 137 138 140 136 133 131 128 129 129 131 130 127 127 126 127 128 127 127 126 127 129 128 126 123 122 121 121 124 126 126 121 121 130 126 121 113 114 112 109 107 105 102 97 93 88 86 78 72 69
273 307 113 100 111 357 104 153 145 102 203 201 198 269 236 222 240 89 251 248 254 207 211 17 57 337 184 114 347 140 210 245 30 88 36 80 81 124 114 115 126 131 134 135 135 136 143 139 139 140 139 137 134 132 132 131 131 131 131 130 126 127 127 127 127 126 129 130 128 128 127 125 124 122 121 122 123 125 125 122 115 112 111 111 117 115 113 108 105 103 96 96 94 88 84 80 79
62 34 352 95 77 179 57 69 46 205 231 153 243 253 219 233 226 98 305 295 289 109 157 96 169 192 359 300 157 72 306 70 305 22 81 336 112 121 117 120 131 131 132 128 131 133 141 138 142 139 136 136 134 135 133 133 133 132 132 131 129 126 129 127 127 129 128 129 130 130 129 127 124 123 120 119 120 122 125 126 124 122 121 117 120 119 117 113 109 106 105 99 95 89 84 84 86
256 41 353 31 20 57 172 139 209 211 265 166 229 268 265 238 220 32 1 353 6 53 359 129 121 105 68 307 52 76 70 6 35 341 32 156 123 127 128 130 132 129 125 124 121 130 139 139 140 138 136 135 135 136 135 135 136 135 134 132 129 130 131 128 126 128 129 130 130 132 130 127 127 125 122 119 119 122 125 126 124 123 122 122 121 122 121 118 114 110 103 97 92 89 85 86 92
98 122 295 104 240 48 93 182 248 161 271 175 246 277 289 282 32 14 331 70 293 99 353 85 346 102 243 55 165 224 46 25 5 19 81 127 122 128 130 135 131 123 122 116 117 126 143 137 138 138 135 136 137 135 137 137 137 135 134 133 133 134 134 131 128 127 129 132 132 133 131 130 129 126 124 123 123 123 128 128 125 123 121 121 123 124 122 120 118 110 101 96 93 88 86 90 95
348 86 292 79 95 44 56 225 256 226 280 275 268 242 266 275 294 279 283 210 71 166 166 181 292 79 222 46 224 289 44 5 49 68 82 104 115 123 120 127 127 120 114 117 116 129 128 136 136 138 138 138 138 140 141 137 137 135 135 135 136 136 137 134 131 129 130 131 132 131 132 131 127 128 127 127 126 129 130 127 122 117 116 119 121 122 122 118 111 106 103 98 95 90 92 100 104
35 86 254 142 123 223 16 296 126 240 225 243 264 282 275 264 204 166 251 321 174 139 206 277 260 148 128 175 320 350 334 358 75 69 75 86 98 98 97 102 106 115 111 112 117 122 127 139 139 141 141 139 141 143 141 139 140 137 137 138 135 136 137 131 128 127 127 127 128 129 132 130 126 129 131 129 130 131 128 122 118 115 113 113 114 115 113 111 108 107 105 102 99 98 103 112 115
194 10 138 83 41 104 210 266 262 300 267 297 286 255 251 270 192 234 206 198 138 146 275 162 35 123 108 210 195 82 47 45 69 81 67 82 91 95 94 95 99 106 115 114 116 121 135 141 141 142 140 140 143 142 139 141 140 139 140 137 134 135 133 128 129 128 126 128 129 131 132 131 129 131 135 137 133 128 125 120 116 114 112 112 114 114 113 111 108 105 102 100 99 101 106 117 121
32 76 31 103 181 161 231 201 267 279 289 311 278 296 312 166 151 135 160 139 162 114 187 159 188 149 80 60 285 239 92 54 75 83 72 71 85 90 94 98 100 102 109 114 119 122 130 137 135 141 136 140 141 140 140 140 140 137 135 132 133 134 133 132 132 130 130 129 132 131 132 134 135 136 136 132 128 126 124 121 116 112 111 112 115 116 114 111 108 106 105 104 105 105 109 119 125
118 108 84 95 219 149 215 298 262 275 327 288 239 283 85 130 182 177 130 81 85 129 283 220 141 75 124 194 209 156 100 118 108 90 77 78 90 96 97 99 109 119 120 121 120 120 126 125 132 137 141 139 137 135 136 135 134 131 131 132 134 132 130 127 133 132 132 135 134 135 136 136 138 137 129 125 129 130 126 120 115 108 106 111 115 114 115 114 112 110 109 109 108 105 109 122 126
116 178 130 208 78 176 143 237 273 329 296 254 264 278 306 34 311 147 119 80 63 172 280 136 98 124 53 354 312 165 146 127 122 96 83 83 91 95 103 114 119 130 128 129 122 121 118 122 122 129 138 130 130 133 128 127 127 129 130 130 131 130 128 129 128 131 132 134 138 138 138 140 143 141 134 131 131 120 116 113 108 104 102 108 112 115 116 115 113 111 110 109 103 103 111 122 128
192 150 83 113 141 43 245 165 212 159 266 255 279 349 2 3 97 60 105 119 62 86 129 52 96 54 225 156 240 183 150 136 128 113 94 89 96 100 101 109 122 122 130 131 123 121 120 115 113 107 108 110 104 101 112 127 129 129 127 126 128 130 129 131 134 134 140 141 143 143 141 143 147 146 144 135 125 122 120 111 105 102 102 109 112 114 115 114 111 113 111 101 95 102 114 126 126
153 82 84 128 243 174 271 190 210 122 264 232 299 324 20 3 51 74 262 175 154 1 37 206 6 92 298 199 258 134 135 133 124 104 95 92 97 108 105 101 118 110 118 125 142 126 116 114 106 103 103 101 101 98 111 116 130 125 132 131 136 136 138 139 143 144 144 143 143 140 141 139 140 147 143 132 125 118 114 111 112 104 105 108 112 112 114 114 113 112 106 96 99 109 117 123 118
74 79 41 42 256 159 257 185 150 212 254 278 291 34 22 62 12 126 275 69 121 37 57 30 346 349 255 15 101 124 122 125 119 111 106 104 92 97 112 95 117 103 115 121 132 121 122 111 107 107 112 110 109 110 114 126 133 136 132 139 138 145 147 151 153 154 150 149 143 140 126 112 126 133 136 140 132 122 125 128 116 108 104 111 115 118 115 113 115 111 100 100 101 109 120 119 116
69 124 112 246 205 167 212 196 191 197 269 301 336 19 38 327 20 173 48 40 58 54 46 33 50 47 54 76 109 115 118 125 123 122 121 115 117 106 107 139 114 128 105 121 123 122 124 113 112 116 112 118 118 117 122 134 141 137 139 144 145 149 151 154 157 152 149 143 146 139 130 128 110 117 137 137 125 132 131 135 124 111 107 109 115 119 116 116 114 106 99 101 106 103 115 116 117
113 111 118 221 196 238 163 204 227 306 269 282 299 319 162 227 135 215 86 330 58 51 15 26 23 56 78 97 116 122 122 125 126 127 126 123 125 126 122 121 106 121 121 115 121 132 119 120 122 118 127 129 125 129 135 140 142 138 137 134 145 148 155 145 128 149 127 143 129 130 124 119 130 132 125 136 136 141 139 133 131 122 112 106 110 116 117 114 109 100 99 100 101 100 106 115 116
220 113 202 240 213 249 217 220 250 208 256 301 316 309 94 240 198 181 118 145 75 162 161 39 215 193 133 120 129 132 133 139 130 128 126 122 126 130 123 118 111 115 115 105 125 115 125 126 123 132 140 147 144 145 137 132 128 121 128 129 127 128 127 128 123 124 130 126 125 120 126 129 128 138 150 149 143 125 141 128 140 136 121 112 93 74 94 111 104 98 97 94 94 98 111 116 115
247 117 199 234 224 237 263 198 237 252 226 265 239 315 336 278 235 100 135 91 290 267 231 175 187 190 160 152 146 146 144 143 147 134 139 133 117 102 115 135 109 111 110 112 98 116 130 128 138 151 159 157 150 143 142 143 135 133 134 135 131 127 126 124 120 111 126 124 126 119 125 125 126 135 130 122 122 138 147 105 75 37 71 69 77 78 61 65 80 92 79 79 92 108 112 119 121
113 209 204 214 188 220 250 225 231 220 252 234 302 62 231 328 55 120 140 126 220 209 217 223 207 165 162 163 159 153 152 155 157 156 150 146 137 130 119 111 104 115 135 118 139 124 135 148 161 167 158 158 151 144 143 151 150 150 146 140 132 123 121 116 108 119 136 138 136 132 113 109 110 109 125 140 135 128 155 108 101 62 67 90 77 90 71 79 86 97 101 97 97 104 115 119 130
220 309 243 239 236 253 255 297 200 116 33 262 322 294 344 67 140 207 143 160 246 257 215 156 144 147 136 139 151 156 158 160 160 162 152 144 146 148 142 142 150 149 142 127 136 124 154 167 157 153 152 154 143 136 138 151 155 146 145 143 129 121 117 122 121 134 144 147 142 132 128 130 132 144 144 145 156 158 155 126 137 153 163 118 92 95 79 68 93 100 102 107 113 117 122 127 130
154 242 259 283 221 239 271 281 295 308 150 239 228 334 327 128 126 179 235 281 281 307 120 112 122 138 135 147 160 156 156 157 159 165 168 165 160 158 154 150 141 122 134 141 157 157 177 171 160 136 146 134 131 136 143 152 157 142 142 153 129 138 144 152 158 145 136 86 133 130 125 119 148 157 158 161 170 165 149 131 145 145 169 150 101 103 99 60 86 98 113 112 114 126 134 142 143
174 236 239 263 253 245 267 271 295 294 283 235 15 319 263 223 168 119 258 328 20 86 103 109 130 142 144 153 159 157 158 156 165 159 133 121 133 131 125 132 139 146 153 159 171 173 191 171 171 142 149 140 147 154 162 161 147 134 132 137 141 156 162 169 146 108 105 128 83 69 150 158 152 162 167 187 182 174 136 134 147 146 171 211 110 97 114 137 95 102 110 112 116 128 138 139 138
199 219 210 272 273 289 281 300 282 286 295 315 348 286 282 222 341 86 257 11 85 99 102 121 137 152 159 165 167 164 166 169 170 164 167 149 147 148 152 155 158 167 176 167 170 183 179 168 177 151 146 151 157 159 156 149 141 140 138 149 160 155 173 154 123 96 73 118 194 175 211 171 163 178 187 189 188 162 154 151 143 154 178 228 145 126 132 169 137 102 99 103 109 127 135 141 132
172 199 219 238 263 305 306 240 297 349 244 308 247 278 292 326 135 284 32 124 117 107 115 131 146 163 177 180 171 173 176 183 183 175 155 149 160 165 161 159 171 176 175 181 182 182 172 146 121 116 136 156 168 172 158 146 143 145 134 154 160 168 152 136 110 114 156 202 174 168 188 173 168 179 183 173 183 161 169 157 167 155 190 218 190 136 126 183 91 126 128 116 119 122 123 125 124
156 165 131 277 282 292 256 308 274 57 293 197 191 246 9 351 64 213 186 139 137 129 135 146 160 174 192 189 183 183 192 189 186 172 178 169 177 171 173 175 179 173 184 186 185 168 145 151 156 167 173 177 174 157 145 140 134 146 162 167 144 135 135 154 134 146 182 184 189 177 181 174 166 175 184 182 180 168 173 166 165 178 207 215 170 137 150 87 114 97 96 100 109 113 105 92 101
204 138 263 279 346 323 261 219 248 157 248 170 161 50 308 340 209 265 138 136 133 133 144 158 169 183 194 197 191 197 199 185 186 194 195 196 176 176 182 184 175 177 192 183 181 164 163 171 177 183 179 177 159 138 140 145 148 163 159 150 124 140 149 156 157 173 181 187 192 198 185 187 176 163 176 184 184 175 171 164 173 194 201 198 141 145 151 104 98 98 81 101 100 103 105 104 105
83 65 151 323 356 325 281 258 308 150 253 129 137 215 267 254 262 287 171 135 127 127 159 169 182 185 197 195 210 209 194 187 200 199 204 206 191 188 182 184 181 178 176 176 155 171 175 187 188 186 177 162 150 140 148 151 152 148 136 130 141 151 160 163 153 167 175 184 203 197 189 186 185 178 167 173 173 173 173 174 180 195 194 179 141 152 172 133 109 109 123 106 114 117 120 128 126
193 241 75 217 34 273 283 175 168 157 172 166 130 193 274 278 270 250 187 161 151 158 173 177 188 194 196 205 216 216 219 208 200 200 215 215 210 191 174 163 177 183 167 154 168 172 180 187 192 183 169 155 156 155 162 158 155 146 145 138 147 151 164 156 152 170 177 188 197 212 190 182 190 185 168 156 169 186 174 178 186 190 163 147 159 182 169 135 128 136 136 111 102 103 113 122 128
7 101 279 326 158 276 295 286 165 168 273 152 114 203 238 224 218 194 192 176 170 162 170 183 191 192 198 210 218 220 228 199 201 210 218 212 204 194 174 175 181 187 170 152 155 169 183 190 195 185 169 161 158 164 163 156 157 149 143 130 74 130 161 200 188 183 186 188 197 211 199 181 187 191 169 156 159 129 198 198 189 163 154 150 177 181 158 150 134 133 141 139 120 116 116 116 128
352 145 256 188 165 251 347 341 280 329 108 30 156 204 313 285 271 280 223 175 188 161 172 188 192 193 198 211 213 224 236 227 226 215 212 196 213 204 193 181 196 178 125 139 156 167 190 192 199 194 177 163 155 155 146 142 148 161 120 122 164 173 183 201 208 162 186 202 197 219 205 189 186 192 181 161 144 155 203 204 169 157 150 163 178 179 170 152 142 133 121 152 135 132 127 129 135
276 9 179 207 177 240 219 303 13 342 107 205 19 208 240 277 285 191 226 195 171 176 182 190 192 193 206 209 205 223 232 230 233 215 186 154 194 200 207 219 70 64 73 86 128 172 194 191 202 200 146 133 130 134 139 147 140 135 140 139 154 178 189 172 196 178 209 211 201 206 199 194 193 187 176 161 154 158 172 203 149 126 150 166 170 164 163 141 138 140 126 82 134 131 138 141 141
191 6 89 307 350 241 227 85 224 51 14 164 325 213 253 284 289 198 199 189 190 193 188 184 183 197 210 209 206 229 235 230 240 111 105 127 134 43 39 49 67 78 83 94 116 153 180 178 174 192 132 92 97 104 102 104 105 105 98 127 152 157 165 146 155 188 210 229 218 197 197 195 191 175 168 158 152 153 156 190 177 96 135 187 160 152 147 140 137 146 137 114 81 115 138 142 139
163 160 161 139 80 240 210 246 278 141 313 289 199 213 220 261 261 244 230 189 185 195 110 155 193 205 216 200 217 231 236 244 253 70 80 78 66 74 79 98 102 113 124 135 150 163 175 158 154 128 109 117 108 99 118 141 125 137 134 104 122 147 150 164 161 184 183 229 331 20 45 49 25 95 171 164 150 148 158 182 158 119 193 205 168 160 154 154 151 136 134 128 121 113 96 126 131
118 87 103 166 173 278 285 265 253 190 121 229 214 222 153 210 218 211 211 145 155 169 181 186 197 202 201 180 212 238 245 247 57 73 80 91 96 100 110 121 127 129 137 147 161 169 171 173 161 152 133 126 133 147 178 226 106 80 66 131 164 87 154 146 184 174 193 185 95 65 105 150 156 163 192 169 152 168 165 182 158 151 193 213 184 174 158 156 154 142 134 129 129 121 121 124 128
138 105 79 337 170 269 230 236 48 279 162 281 240 193 142 221 246 276 95 133 203 193 189 204 203 210 188 189 213 228 238 34 54 65 82 94 103 106 93 71 124 136 144 147 165 160 158 172 177 157 136 142 151 161 168 82 38 44 54 343 126 147 176 206 205 194 183 124 102 150 194 197 251 198 184 164 138 138 181 182 157 161 192 217 179 138 148 143 142 137 133 112 107 137 139 148 144
49 182 148 2 283 248 285 277 335 335 109 247 215 132 129 218 340 345 37 224 325 324 211 213 203 199 202 211 220 237 285 36 57 83 93 92 90 86 82 82 71 51 52 73 86 135 113 144 119 89 100 111 128 123 85 76 90 55 158 192 159 159 249 224 225 170 124 109 159 207 191 195 193 219 200 182 153 161 192 190 170 158 186 189 149 172 155 153 157 156 155 141 134 86 125 153 157
114 95 112 224 235 33 306 291 16 356 124 258 132 99 12 351 89 63 32 46 265 319 86 29 176 244 260 281 340 13 47 74 98 143 87 70 74 75 82 81 84 79 75 85 102 129 117 128 117 99 100 107 105 109 107 135 167 170 141 139 124 120 208 218 224 143 137 129 157 177 204 189 196 202 188 177 166 176 188 190 165 153 183 203 183 160 160 161 159 160 154 150 144 141 152 163 167
335 142 149 189 234 236 172 257 326 319 65 105 105 55 24 7 5 355 348 347 29 4 32 42 46 17 11 11 41 65 74 97 103 80 77 68 61 65 88 92 80 78 69 60 78 102 80 88 117 129 123 141 151 156 147 201 170 109 104 92 97 69 21 227 218 218 179 168 155 196 218 192 193 194 179 178 178 175 188 185 173 165 179 190 198 170 163 171 172 170 163 158 165 156 160 155 178
328 232 180 192 195 206 282 321 10 23 328 4 115 58 13 304 348 12 347 358 26 355 33 7 337 340 24 103 138 92 75 96 121 100 79 76 72 59 59 71 76 73 71 72 71 61 63 78 116 119 114 143 160 162 179 191 196 147 123 135 153 168 209 203 227 226 200 182 195 186 218 211 205 195 190 184 182 172 172 177 164 172 188 190 200 180 154 153 172 170 177 169 167 172 156 160 163
138 260 189 204 194 186 251 288 74 10 136 290 76 125 154 314 5 354 343 360 22 15 27 4 350 333 323 147 127 107 114 100 91 91 81 73 59 56 30 48 67 88 97 104 104 80 54 65 121 158 156 154 161 185 199 201 175 95 169 163 176 186 191 202 196 190 178 160 182 192 201 194 201 204 201 187 178 168 162 168 181 186 195 192 196 167 165 173 174 179 162 173 175 154 159 166 169
207 243 171 180 146 178 224 185 170 214 252 295 49 113 134 119 340 336 323 345 30 24 14 7 351 337 315 289 120 113 106 102 97 96 83 73 59 52 42 12 60 57 54 52 143 171 169 146 131 167 176 174 204 209 209 194 165 179 211 201 182 182 193 207 186 139 96 132 208 208 220 197 202 200 194 191 176 175 172 176 177 175 176 198 188 184 181 170 161 164 170 167 150 167 170 170 170
218 214 158 164 170 192 173 133 175 216 137 250 326 356 82 134 263 314 353 27 13 16 9 6 359 357 355 357 37 77 95 97 101 91 88 85 89 91 174 14 23 40 28 52 188 208 198 186 167 166 183 188 212 223 221 189 168 197 208 225 224 200 185 189 130 133 155 182 184 212 210 204 199 200 200 196 188 181 180 184 182 184 188 182 170 182 195 169 171 165 162 161 170 171 176 167 165
271 144 83 89 82 66 109 113 109 343 76 269 263 21 119 272 288 353 342 49 25 352 354 2 10 19 29 34 41 49 55 79 86 91 89 90 107 138 158 118 36 332 312 343 9 314 254 227 199 189 196 206 218 222 225 198 190 206 209 213 223 211 180 166 147 153 168 180 187 216 206 190 187 188 187 192 184 188 182 177 181 194 195 166 166 183 173 178 178 177 176 176 172 163 163 166 179
152 116 70 39 45 48 28 65 88 73 36 258 251 335 126 127 304 4 0 41 289 332 7 9 19 34 41 41 43 39 42 53 68 75 65 68 42 33 18 26 337 348 1 352 335 289 211 209 213 212 214 218 221 222 221 212 202 217 223 224 225 221 184 159 150 156 168 198 188 195 195 187 186 180 191 186 180 185 187 177 182 194 184 173 164 171 192 185 183 179 177 171 169 166 172 164 155
113 136 123 84 17 18 25 339 35 101 270 262 286 174 108 172 304 322 39 55 46 36 39 52 42 46 54 42 41 40 38 38 38 38 37 37 35 30 31 33 22 9 9 353 310 301 289 241 208 217 232 231 232 230 228 221 211 220 226 228 229 242 205 179 165 155 171 185 182 181 168 163 183 189 191 173 163 179 180 176 183 180 178 182 178 177 189 186 175 170 169 175 178 178 164 159 155
92 89 100 124 224 53 227 8 157 159 174 309 337 317 35 39 212 123 36 41 43 37 32 29 55 55 53 52 50 47 43 42 40 42 42 41 41 34 30 29 28 27 9 334 314 280 269 276 220 208 234 241 241 233 229 227 227 227 228 228 214 201 223 209 170 161 165 178 176 173 161 170 180 187 194 174 171 173 167 169 176 183 187 189 181 175 184 175 168 170 173 177 176 179 178 167 167
136 139 141 121 137 126 174 279 274 316 291 271 356 333 93 24 93 331 56 23 43 42 45 47 47 46 53 56 59 58 57 51 49 48 54 48 38 42 35 32 31 23 15 358 335 330 310 306 276 231 239 245 250 255 246 229 237 231 231 240 212 194 207 216 201 170 168 172 169 175 167 172 175 189 189 190 173 159 163 184 185 192 191 180 179 181 174 171 165 168 173 175 184 189 172 176 182
184 148 147 167 137 154 170 181 161 190 187 292 300 63 222 155 237 109 53 4 58 52 48 48 50 52 56 64 58 51 47 47 50 50 50 51 43 37 37 31 26 16 21 21 12 0 330 278 258 265 276 280 286 287 338 306 289 307 278 252 214 164 202 220 216 187 170 167 169 173 170 170 173 186 195 179 162 161 160 167 180 187 184 180 144 111 162 166 162 163 176 182 174 174 173 176 176
117 150 65 104 214 144 130 202 147 166 117 50 0 93 313 148 351 86 52 37 55 61 50 35 47 50 54 57 52 51 48 44 33 41 44 42 40 40 42 37 17 12 15 22 26 25 13 326 299 286 287 298 307 319 339 333 321 330 323 316 285 173 195 234 238 206 184 172 170 173 171 168 172 174 191 169 174 161 163 168 172 178 163 118 148 171 187 168 160 155 150 151 155 149 159 174 173
192 100 156 210 162 105 91 59 55 95 64 30 342 104 318 303 266 141 148 125 96 70 72 48 54 61 59 57 54 48 43 40 41 38 36 34 31 28 28 30 27 21 17 13 12 356 348 339 332 319 314 302 302 298 296 295 295 296 294 314 299 230 210 208 212 198 187 181 174 175 169 167 154 160 170 189 173 169 165 164 166 163 151 164 168 173 194 164 152 147 152 148 151 156 158 171 163
94 134 212 158 118 114 127 166 339 56 140 222 31 194 149 144 229 170 179 171 159 133 106 87 77 76 66 60 55 46 40 39 41 39 35 32 30 28 28 30 25 19 14 13 16 6 356 349 334 325 326 327 320 307 288 288 306 308 307 298 274 259 232 214 211 198 180 175 181 179 156 154 176 177 177 183 178 170 166 162 157 157 160 158 172 171 170 144 146 143 162 144 152 151 146 142 166
159 179 157 122 169 180 341 98 132 127 111 169 335 303 285 194 232 179 190 167 151 137 131 111 79 70 68 63 53 45 40 37 35 35 29 25 28 26 26 28 24 20 14 9 6 5 1 3 4 356 346 331 310 293 295 298 273 254 269 280 255 235 236 222 201 187 166 172 178 183 186 170 159 170 172 172 159 158 154 150 153 152 155 159 153 163 137 130 130 130 133 132 136 143 139 150 159
28 100 104 42 103 149 130 197 163 112 178 83 309 244 235 211 208 191 174 155 148 142 127 112 87 66 61 57 54 47 41 36 33 29 22 17 16 17 23 25 20 15 10 4 3 8 9 9 10 7 4 352 328 314 291 286 283 304 318 305 300 258 232 210 199 168 157 165 168 172 164 155 163 154 161 160 158 156 153 146 152 151 152 155 156 151 137 127 126 137 140 135 145 140 144 155 148
45 52 26 44 37 214 101 34 86 163 158 166 142 221 263 255 219 175 164 148 139 136 122 94 72 65 60 55 45 42 36 31 29 29 20 19 14 12 18 22 17 13 12 6 6 9 10 10 8 3 359 351 342 330 350 8 348 108 169 205 158 184 232 216 189 149 141 143 146 152 162 164 140 153 154 157 155 150 149 147 144 149 152 155 151 143 138 135 134 136 140 140 145 150 151 146 136
158 155 186 158 121 112 128 217 28 78 109 178 132 220 264 269 185 178 141 149 132 115 107 78 68 66 60 55 45 33 30 24 24 25 22 21 15 10 12 17 18 16 12 6 4 6 13 14 3 359 354 349 339 337 343 3 353 235 232 189 141 129 188 67 29 94 121 125 133 138 151 142 160 163 163 163 156 157 148 142 137 139 142 144 147 150 149 144 141 138 140 146 146 145 137 146 149